Regional Weather Roundup
Issued by NWS

Home | Current Version | Previous Version | Graphics & Text | Print | Product List | Glossary On
Versions: 1 2 3 4 5 6 7 8 9 10 11 12 13 14 15 16 17 18 19 20 21 22 23 24 25 26 27 28 29 30 31 32 33 34 35 36 37 38 39 40 41 42 43 44 45 46 47 48 49 50
000
ASUS45 KCYS 160910
RWRWY

WYOMING REGIONAL WEATHER ROUNDUP
NATIONAL WEATHER SERVICE CHEYENNE WY
300 AM MDT TUE SEP 16 2014

NOTE:  "FAIR" INDICATES FEW OR NO CLOUDS BELOW 12,000 FEET
WITH NO SIGNIFICANT WEATHER AND/OR OBSTRUCTIONS TO VISIBILITY.

WYZ001-161000-
YELLOWSTONE NATIONAL PARK

CITY           SKY/WX    TMP DP  RH WIND       PRES   REMARKS
LK YELLOWSTONE   N/A     34  29  82 CALM      30.36S
W YELLOWSTONE  NOT AVBL

$$
WYZ002>013-054>058-071-098>099-161000-
NORTHERN WYOMING

CITY           SKY/WX    TMP DP  RH WIND       PRES   REMARKS
JACKSON        CLEAR     37  30  75 CALM      30.29S
CODY           CLEAR     55  37  50 W5        30.15S
GREYBULL       CLEAR     50  44  80 SE6       30.11S
WORLAND        PTCLDY    50  44  80 S10       30.12S
SHERIDAN       CLEAR     44  39  82 CALM      30.08F
BUFFALO        CLEAR     53  34  48 SW8       30.14S
GILLETTE       CLEAR     49  42  77 CALM      30.10F
HULETT         FAIR      54  43  66 MISG      30.10
NEWCASTLE      FAIR      46  41  81 CALM      30.11

$$
WYZ014>020-022>026-101>103-161000-
CENTRAL WYOMING

CITY           SKY/WX    TMP DP  RH WIND       PRES   REMARKS
BIG PINEY      PTCLDY    38  27  64 E7        30.32F WCI  33
PINEDALE       MOSUNNY   37  32  81 NW8       30.34S WCI  31
DUBOIS         FAIR      43  27  52 NW13      30.31S
LANDER         CLEAR     56  37  49 CALM      30.19S
RIVERTON       CLEAR     54  36  50 SW8       30.20S
CASPER         PTCLDY    43  37  79 W3        30.17S
DOUGLAS        MOCLDY    48  44  86 N6        30.14S

$$
WYZ021-027>030-104>119-161000-
SOUTHERN WYOMING

CITY           SKY/WX    TMP DP  RH WIND       PRES   REMARKS
EVANSTON       CLEAR     54  31  41 SE7       30.32F
KEMMERER       SUNNY     46  30  53 NW12      30.34F
FORT BRIDGER   FAIR      58  31  36 S6        30.34F
ROCK SPRINGS   CLEAR     56  33  42 W5        30.30S
DIXON          PTSUNNY   44  38  81 S3        30.32S
RAWLINS        PTCLDY    56  33  42 W9        30.28R
SARATOGA       CLOUDY    50  36  57 S8        30.31S
LARAMIE        CLEAR     43  36  76 NE7       30.30R
CHEYENNE       PTCLDY    49  42  77 W7        30.21F
TORRINGTON     MOCLDY    50  48  93 E9        30.09F
PINE BLUFFS    FAIR      46  46 100 S8        30.16F

$$


USA.gov is the U.S. government's official web portal to all federal, state and local government web resources and services.